SCP
0 0 0 0 0 0 0 0 0 0 0 0 0 0 0 0 0 0 0 0 0 0
0 0 0 0 0 0 0 0 0 0 0 0 0 0 0 0 0 0 0 0 0 0
0 0 0 0 0 0 0 0 0 0 0 0 0 0 0 0 0 0 0 0 0 0
0 0 0 0 0 0 0 0 0 0 0 0 0 0 0 0 0 0 -0 0 0 0
0 0 0 0 0 0 0 0 0 0 0 0 0 0 0 0 0 0 0 0 0 0
0 0 0 0 0 0 0 0 0 0 0 0 0 0 0 0 0 0 0 0 0 0
0 0 0 0 0 0 0 0 0 0 0 0 0 0 0 0 0 0 0 0 0 0
0 0 0 0 0 0 0 0 0 0 0 0 0 0 0 0 0 0 0 -0 0 0
0 0 0 0 0 0 0 0 0 0 0 0 0 0 0 0 0 0 0 -0 -0 -0
0 0 0 0 0 0 0 0 0 0 0 0 0 0 0 0 0 0 0 -0 -0 -0
0 0 0 0 0 0 0 0 0 0 0 0 0 0 0 0 0 0 0 -0 -0 -0
0 0 0 0 0 0 0 0 0 0 0 0 0 0 0 0 0 0 0 0 0 -0
0 0 0 0 0 0 0 0 0 0 0 0 0 0 0 0 0 0 0 0 0 0
0 0 0 0 0 0 0 0 0 0 0 0 0 0 -0 0 0 0 0 0 0 0
Wind_Speed_500mb
65 72 79 83 87 93 95 100 100 103 103 93 86 79 68 63 78 78 71 62 81 76
68 73 81 86 88 91 93 99 101 100 98 93 87 78 82 86 85 82 77 50 79 79
72 78 84 89 91 90 92 97 101 103 98 92 85 83 76 71 80 84 88 61 60 77
77 82 88 91 90 89 94 97 100 100 97 88 82 81 73 80 79 81 89 73 55 75
82 86 89 92 91 91 95 96 98 97 91 88 81 77 76 74 70 74 85 80 58 70
82 89 93 94 93 93 96 98 95 91 88 81 75 73 73 73 71 72 82 84 63 49
87 91 94 94 94 95 95 96 92 88 83 74 73 68 65 64 66 67 77 86 74 57
88 90 93 93 94 95 95 93 88 82 77 70 66 64 57 56 55 64 69 85 85 74
87 90 91 93 93 95 95 92 86 78 74 73 65 59 56 56 63 65 68 68 88 82
85 88 89 90 91 93 93 93 90 80 74 71 67 62 59 59 60 66 69 76 79 88
84 85 86 87 87 91 94 92 88 81 73 69 62 59 60 63 62 66 67 74 83 88
80 82 83 83 86 90 91 92 87 77 72 65 60 55 60 61 65 64 67 64 66 77
73 74 77 79 85 87 87 87 84 79 67 64 59 52 56 48 55 66 65 63 74 72
68 69 73 78 79 86 86 88 86 83 74 66 61 62 49 50 43 63 64 64 62 64
Wind_Direction_500mb
323 323 321 322 321 320 320 320 322 317 312 308 301 295 289 278 261 260 262 261 251 260
322 322 322 321 321 321 319 320 319 315 311 305 300 293 279 273 263 256 254 274 252 254
324 324 322 322 323 321 318 319 318 315 311 304 296 292 290 282 267 259 254 260 263 254
325 324 324 323 322 321 320 320 317 314 309 300 290 287 283 279 271 261 253 252 261 258
326 326 325 324 325 323 321 320 317 313 307 297 291 284 282 282 270 261 252 248 254 256
327 327 326 326 326 324 323 321 317 311 305 299 290 283 279 276 270 263 249 243 252 257
329 328 326 327 327 326 324 322 319 312 305 296 291 283 279 274 269 264 252 241 242 249
329 328 328 329 329 328 326 324 320 313 307 301 293 286 280 280 277 260 256 245 241 241
329 331 331 331 332 330 329 326 322 318 314 308 299 289 277 272 273 271 257 252 246 245
332 332 333 334 334 332 331 331 327 320 309 305 301 293 283 276 268 267 261 248 247 246
332 334 335 336 336 336 336 333 326 322 318 312 303 299 291 281 272 266 260 251 248 246
335 336 337 339 341 342 337 336 331 321 315 313 303 311 303 291 278 269 262 253 248 250
338 340 340 345 347 341 343 339 334 332 330 323 314 315 314 311 291 276 273 262 244 248
343 343 348 350 348 347 345 342 343 337 338 335 322 306 319 316 326 296 272 264 258 257
Wind_Speed_850mb
65 72 79 83 87 93 95 100 100 103 103 93 86 79 68 63 78 78 71 62 81 76
68 73 81 86 88 91 93 99 101 100 98 93 87 78 82 86 85 82 77 50 79 79
72 78 84 89 91 90 92 97 101 103 98 92 85 83 76 71 80 84 88 61 60 77
77 82 88 91 90 89 94 97 100 100 97 88 82 81 73 80 79 81 89 73 55 75
82 86 89 92 91 91 95 96 98 97 91 88 81 77 76 74 70 74 85 80 58 70
82 89 93 94 93 93 96 98 95 91 88 81 75 73 73 73 71 72 82 84 63 49
87 91 94 94 94 95 95 96 92 88 83 74 73 68 65 64 66 67 77 86 74 57
88 90 93 93 94 95 95 93 88 82 77 70 66 64 57 56 55 64 69 85 85 74
87 90 91 93 93 95 95 92 86 78 74 73 65 59 56 56 63 65 68 68 88 82
85 88 89 90 91 93 93 93 90 80 74 71 67 62 59 59 60 66 69 76 79 88
84 85 86 87 87 91 94 92 88 81 73 69 62 59 60 63 62 66 67 74 83 88
80 82 83 83 86 90 91 92 87 77 72 65 60 55 60 61 65 64 67 64 66 77
73 74 77 79 85 87 87 87 84 79 67 64 59 52 56 48 55 66 65 63 74 72
68 69 73 78 79 86 86 88 86 83 74 66 61 62 49 50 43 63 64 64 62 64
Wind_Direction_850mb
323 323 321 322 321 320 320 320 322 317 312 308 301 295 289 278 261 260 262 261 251 260
322 322 322 321 321 321 319 320 319 315 311 305 300 293 279 273 263 256 254 274 252 254
324 324 322 322 323 321 318 319 318 315 311 304 296 292 290 282 267 259 254 260 263 254
325 324 324 323 322 321 320 320 317 314 309 300 290 287 283 279 271 261 253 252 261 258
326 326 325 324 325 323 321 320 317 313 307 297 291 284 282 282 270 261 252 248 254 256
327 327 326 326 326 324 323 321 317 311 305 299 290 283 279 276 270 263 249 243 252 257
329 328 326 327 327 326 324 322 319 312 305 296 291 283 279 274 269 264 252 241 242 249
329 328 328 329 329 328 326 324 320 313 307 301 293 286 280 280 277 260 256 245 241 241
329 331 331 331 332 330 329 326 322 318 314 308 299 289 277 272 273 271 257 252 246 245
332 332 333 334 334 332 331 331 327 320 309 305 301 293 283 276 268 267 261 248 247 246
332 334 335 336 336 336 336 333 326 322 318 312 303 299 291 281 272 266 260 251 248 246
335 336 337 339 341 342 337 336 331 321 315 313 303 311 303 291 278 269 262 253 248 250
338 340 340 345 347 341 343 339 334 332 330 323 314 315 314 311 291 276 273 262 244 248
343 343 348 350 348 347 345 342 343 337 338 335 322 306 319 316 326 296 272 264 258 257